Location: Borealis Mine
(38.3824°N, 118.7610°W)
Time: 10:14:27
(UTC+00:00)

Daily predictions for brighter satellites

Satellite Brightness Start Highest point End
(mag) Time Altitude Azimuth Time Altitude Azimuth Time Altitude Azimuth
CZ-4C R/B 3.8 12:06:00 36° NW 12:06:00 36° NW 12:08:29 10° NNW
OE (NEXTSAT) 4.1 12:05:10 70° WSW 12:05:21 73° SSW 12:08:48 10° SE
IRIDIUM 104 4.3 12:04:51 10° N 12:10:06 87° E 12:15:19 10° S
Cosmos 1777 Rocket 4.4 12:06:18 10° NW 12:11:04 37° W 12:15:47 10° SSW
Cosmos 2278 4.5 12:10:40 29° W 12:12:12 34° WNW 12:17:22 10° N
Meteor 1-4 Rocket 2.4 12:10:04 21° S 12:12:15 80° E 12:15:45 10° N
Meteor 1-11 Rocket 4.5 12:07:06 10° N 12:12:47 56° ENE 12:18:19 10° SSE
Meteor 1-31 Rocket 4.5 12:12:17 10° NNE 12:15:47 34° E 12:19:18 10° SSE
NOSS 3-3 (A) 3.9 12:15:21 26° SW 12:18:37 61° NW 12:24:54 10° NNE
NOSS 3-3 (C) 3.9 12:15:32 26° SW 12:18:45 61° NW 12:24:59 10° NNE
IRIDIUM 114 4.2 12:14:01 10° N 12:19:15 77° W 12:24:26 10° S
Lacrosse 5 3.5 12:19:11 17° WNW 12:21:10 21° NNW 12:25:01 10° NNE
Cosmos 1727 Rocket 4.0 12:15:10 10° S 12:21:31 84° W 12:27:54 10° N
USA 32 4.3 12:17:45 10° N 12:23:00 71° E 12:28:13 10° S
ADEOS 3.7 12:17:46 10° NNE 12:23:01 77° ESE 12:28:13 10° S
Meteor 1-27 Rocket 4.1 12:17:26 10° S 12:23:19 74° E 12:29:15 10° NNE
Cosmos 1238 Rocket 4.4 12:18:41 10° NNW 12:24:46 41° W 12:30:23 10° SSW
SJ-6F 4.3 12:21:14 10° NNE 12:25:21 89° WNW 12:29:26 10° SSW
ERS-2 2.1 12:22:08 10° S 12:25:43 56° WSW 12:29:20 10° NNW
IDEFIX/ARIANE 42P 4.1 12:23:12 10° NNW 12:26:38 18° WNW 12:27:17 17° WNW
IRIDIUM 103 4.3 12:23:12 10° N 12:28:21 62° W 12:33:29 10° SSW
Landsat 5 4.4 12:28:52 10° SSW 12:32:48 30° W 12:36:46 10° NW
Cosmos 1812 3.5 12:36:03 20° SW 12:37:56 30° WNW 12:41:22 10° NNW
Cosmos 44 4.4 12:38:47 18° W 12:40:43 23° NW 12:44:26 10° N
SL-4 R/B 2.6 12:36:44 12° SW 12:40:49 66° SE 12:45:34 10° NE
X-37B 2.5 12:38:42 11° NW 12:41:10 24° N 12:43:52 10° ENE
Cosmos 1689 Rocket 3.9 12:38:30 10° SE 12:41:13 34° ENE 12:43:57 10° N
Cosmos 1937 Rocket 4.3 12:39:49 10° N 12:44:53 55° ENE 12:49:54 10° SSE
deb Chang Zheng 4 3.6 12:43:39 10° N 12:47:51 54° WNW 12:52:00 10° SSW
FALCON 9 DEB 3.3 12:44:56 12° SW 12:47:58 72° SE 12:51:24 10° NE
Cosmos 1500 4.2 12:46:38 10° NW 12:49:46 24° W 12:52:53 10° SW
Cosmos 1459 Rocket 4.1 12:44:39 10° N 12:50:45 80° E 12:56:48 10° S
USA 234 3.8 12:46:58 10° SSE 12:52:51 36° SW 12:58:46 10° WNW
Cosmos 1707 Rocket 3.8 12:49:06 10° SSW 12:53:14 46° W 12:57:25 10° N
Cosmos 2360 Rocket 2.8 12:47:59 10° S 12:53:32 60° ESE 12:59:07 10° NNE
Cosmos 841 Rocket 3.7 12:48:26 10° S 12:53:37 77° ESE 12:58:52 10° NNE
Cosmos 1666 2.8 12:52:12 10° NNW 12:55:54 49° W 12:59:33 10° SSW
ADEOS Rocket 3.4 12:49:25 10° S 12:56:20 53° W 13:02:36 10° NNW
Cosmos 921 Rocket 4.4 12:56:13 12° WSW 12:58:34 18° WNW 13:01:31 10° NNW
CZ-4B R/B 4.1 12:56:38 10° N 13:00:54 63° WNW 13:05:16 10° SSW
CZ-4B R/B 2.8 12:57:32 10° NNE 13:01:12 74° ESE 13:04:46 10° S
Cosmos 1570 Rocket 4.1 12:56:31 10° SSW 13:01:49 89° ESE 13:07:11 10° NNE
ALOS 2.4 12:58:12 10° N 13:02:46 56° WNW 13:07:19 10° SSW
Cosmos 1980 Rocket 3.9 13:01:05 10° W 13:04:14 15° NW 13:07:23 10° NNW
Cosmos 1763 Rocket 4.0 12:59:54 10° SW 13:04:55 42° WNW 13:09:59 10° N
Cosmos 2322 Rocket 2.4 13:02:57 10° SW 13:08:28 53° WNW 13:14:03 10° NNE
SKYMED 2 3.8 13:05:18 10° SSE 13:09:36 77° ENE 13:13:58 10° N
PSLV R/B 4.0 13:07:12 10° SSE 13:11:14 86° ENE 13:15:19 10° NNW
Cosmos 2237 4.3 13:05:50 10° SSW 13:11:33 86° WNW 13:17:18 10° NNE
METEOR-M 4.2 13:06:41 10° N 13:11:57 60° WNW 13:17:12 10° SSW
FENGYUN 3A 3.9 13:07:46 10° N 13:12:57 49° WNW 13:18:08 10° SW
CZ-4B R/B 2.5 13:11:28 10° SSW 13:13:55 21° W 13:16:25 10° NW
SL-16 R/B 2.8 13:10:34 10° SW 13:15:48 38° WNW 13:21:05 10° N
Cosmos 1733 Rocket 3.1 13:12:12 10° NNW 13:16:29 59° W 13:20:43 10° S
Cosmos 2263 Rocket 2.7 13:11:36 10° NW 13:16:46 37° WSW 13:21:56 10° S
